Tupelo, MS

3:49 AM CDT on June 24, 2017 (GMT -0500)
Tupelo Regional

Weather History for KTUP - November, 2013

Change the Weather History Date:

Wednesday, November 6, 2013

  Actual Average Record
Temperature  
Mean Temperature 62 °F 56 °F  
Max Temperature 71 °F 68 °F 81 °F (1938)
Min Temperature 52 °F 44 °F 21 °F (1982)
Degree Days  
Heating Degree Days 3 9  
Month to date heating degree days 50 52  
Since 1 July heating degree days 169 200  
Cooling Degree Days 0 1  
Month to date cooling degree days 0 6  
Year to date cooling degree days 2027 2039  
Growing Degree Days 12 (Base 50)    
Moisture  
Dew Point 54 °F    
Average Humidity 79    
Maximum Humidity 100    
Minimum Humidity 57    
Precipitation  
Precipitation 0.52 in 0.13 in 2.17 in (1943)
Month to date precipitation 0.52 0.78  
Year to date precipitation 43.06 44.81  
Snow  
Snow 0.00 in 0.00 in 0.00 in (2002)
Month to date snowfall 0.0 0.0  
Since 1 July snowfall 0.0 0.0  
Since 1 September snowfall 0.0 0.0  
Snow Depth 0.00 in    
Sea Level Pressure  
Sea Level Pressure 30.12 in    
Wind  
Wind Speed 8 mph (SW)    
Max Wind Speed 20 mph    
Max Gust Speed 25 mph    
Visibility 8 miles    
Events Rain    
T = Trace of Precipitation, MM = Missing Value Source: NWS Daily Summary

Daily Weather History Graph

Daily Weather History Graph

Search for Another Location

Airport or City:

Trip Planner

Search our weather history database for the weather conditions in past years. The results will help you decide how hot, cold, wet, or windy it might be!

Date:

Astronomy

Nov. 06, 2013 Rise Set
Actual Time 6:19 AM CST 4:57 PM CST
Civil Twilight 5:53 AM CST 5:23 PM CST
Nautical Twilight 5:23 AM CST 5:53 PM CST
Astronomical Twilight 4:54 AM CST 6:22 PM CST
Moon 9:31 AM CST (11/6) 8:04 PM CST (11/6)
Length of Visible Light 11h 29m
Length of Day
10h 37m
Waxing Crescent, 14% of the Moon is Illuminated
Nov 6
Waxing Crescent
Nov 9
First Quarter
Nov 17
Full
Nov 25
Last Quarter
Dec 2
New

Hourly Weather History & Observations

Time (CST) Temp. Dew Point Humidity Pressure Visibility Wind Dir Wind Speed Gust Speed Precip Events Conditions
12:53 AM 57.0 °F 44.1 °F 62% 30.19 in 10.0 mi South 6.9 mph - N/A   Clear
1:53 AM 57.0 °F 43.0 °F 59% 30.17 in 10.0 mi South 6.9 mph - N/A   Clear
2:53 AM 55.9 °F 43.0 °F 62% 30.16 in 10.0 mi South 8.1 mph - N/A   Clear
3:53 AM 54.0 °F 43.0 °F 66% 30.16 in 10.0 mi South 5.8 mph - N/A   Clear
4:53 AM 54.0 °F 43.0 °F 66% 30.16 in 10.0 mi South 8.1 mph - N/A   Clear
5:53 AM 52.0 °F 44.1 °F 74% 30.16 in 10.0 mi South 6.9 mph - N/A   Clear
6:53 AM 54.0 °F 45.0 °F 72% 30.16 in 10.0 mi South 8.1 mph - N/A   Clear
7:53 AM 55.9 °F 46.9 °F 72% 30.17 in 10.0 mi SSW 10.4 mph - N/A   Overcast
8:04 AM 55.4 °F 46.4 °F 72% 30.18 in 10.0 mi SSW 11.5 mph - N/A   Overcast
8:53 AM 59.0 °F 48.9 °F 69% 30.17 in 10.0 mi SSW 12.7 mph 20.7 mph N/A   Mostly Cloudy
9:04 AM 60.8 °F 50.0 °F 68% 30.18 in 10.0 mi South 11.5 mph 24.2 mph N/A   Scattered Clouds
9:53 AM 63.0 °F 52.0 °F 67% 30.17 in 10.0 mi SSW 11.5 mph - N/A   Overcast
10:53 AM 66.0 °F 54.0 °F 65% 30.14 in 10.0 mi SSW 11.5 mph - N/A   Overcast
11:53 AM 69.1 °F 55.0 °F 61% 30.11 in 10.0 mi South 11.5 mph - N/A   Overcast
12:53 PM 69.1 °F 55.9 °F 63% 30.08 in 10.0 mi SSW 10.4 mph - N/A   Overcast
1:53 PM 70.0 °F 57.0 °F 63% 30.07 in 10.0 mi South 6.9 mph - N/A   Overcast
2:53 PM 70.0 °F 57.9 °F 65% 30.06 in 10.0 mi South 8.1 mph - N/A   Overcast
3:53 PM 69.1 °F 59.0 °F 70% 30.05 in 10.0 mi SSW 5.8 mph - N/A   Overcast
4:53 PM 66.0 °F 62.1 °F 87% 30.05 in 9.0 mi SSW 5.8 mph - 0.01 in   Overcast
5:35 PM 64.4 °F 62.6 °F 94% 30.06 in 2.5 mi SSW 6.9 mph - 0.04 in Rain Heavy Rain
5:42 PM 64.4 °F 62.6 °F 94% 30.06 in 3.0 mi SW 4.6 mph - 0.06 in Rain Light Rain
5:53 PM 64.9 °F 63.0 °F 93% 30.06 in 2.5 mi West 3.5 mph - 0.09 in Rain Rain
6:03 PM 64.4 °F 62.6 °F 94% 30.08 in 3.0 mi NNW 10.4 mph - 0.04 in Rain Rain
6:11 PM 64.4 °F 62.6 °F 94% 30.08 in 2.0 mi North 10.4 mph - 0.09 in Rain Heavy Rain
6:18 PM 64.4 °F 62.6 °F 94% 30.09 in 2.5 mi North 8.1 mph - 0.13 in Rain Rain
6:36 PM 64.4 °F 62.6 °F 94% 30.09 in 3.0 mi North 8.1 mph - 0.21 in Rain Rain
6:53 PM 63.0 °F 62.1 °F 97% 30.09 in 3.0 mi North 4.6 mph - 0.26 in Rain Light Rain
7:53 PM 63.0 °F 61.0 °F 93% 30.08 in 7.0 mi Calm Calm - 0.05 in Rain Light Rain
8:53 PM 63.0 °F 61.0 °F 93% 30.09 in 10.0 mi Calm Calm - 0.03 in Rain Light Rain
9:05 PM 62.6 °F 60.8 °F 94% 30.10 in 6.0 mi Calm Calm - 0.00 in Rain Light Rain
9:53 PM 63.0 °F 61.0 °F 93% 30.10 in 5.0 mi WNW 3.5 mph - 0.05 in Rain Rain
10:20 PM 62.6 °F 60.8 °F 94% 30.11 in 8.0 mi Calm Calm - 0.02 in Rain Light Rain
10:27 PM 60.8 °F 59.0 °F 94% 30.12 in 9.0 mi NNW 15.0 mph 19.6 mph 0.03 in Rain Light Rain
10:53 PM 55.9 °F 53.1 °F 90% 30.13 in 10.0 mi North 13.8 mph 19.6 mph 0.03 in   Overcast
11:24 PM 55.4 °F 51.8 °F 88% 30.16 in 10.0 mi North 11.5 mph 20.7 mph N/A   Overcast
11:53 PM 53.1 °F 48.9 °F 86% 30.15 in 10.0 mi North 13.8 mph 21.9 mph 0.00 in   Overcast